Time,TemperatureF,DewpointF,PressureIn,WindDirection,WindDirectionDegrees,WindSpeedMPH,WindSpeedGustMPH,Humidity,HourlyPrecipIn,Conditions,Clouds,dailyrainin,SoftwareType,DateUTC
2013-04-02 00:03:00,54.4,51.5,30.11,SSW,210,0.0,0.0,90,0.00,,---,0.00,VWS V14.01,2013-04-02 07:03:00,
2013-04-02 00:08:00,54.4,51.5,30.11,SSW,210,0.0,0.0,90,0.00,,---,0.00,VWS V14.01,2013-04-02 07:08:00,
2013-04-02 00:13:00,54.4,51.5,30.11,SSW,210,0.0,0.0,90,0.00,,---,0.00,VWS V14.01,2013-04-02 07:13:00,
2013-04-02 00:18:00,54.4,51.5,30.11,SSW,210,0.0,0.0,90,0.00,,---,0.00,VWS V14.01,2013-04-02 07:18:00,
2013-04-02 00:23:00,54.2,51.3,30.11,SSW,210,0.0,0.0,90,0.00,,---,0.00,VWS V14.01,2013-04-02 07:23:00,
2013-04-02 00:28:00,53.9,51.0,30.11,SSW,210,0.0,0.0,90,0.00,,---,0.00,VWS V14.01,2013-04-02 07:28:00,
2013-04-02 00:33:00,53.5,50.6,30.11,SSW,210,0.0,0.0,90,0.00,,---,0.00,VWS V14.01,2013-04-02 07:33:00,
2013-04-02 00:38:00,53.1,50.2,30.11,SSW,210,0.0,0.0,90,0.00,,---,0.00,VWS V14.01,2013-04-02 07:38:00,
2013-04-02 00:43:00,52.6,50.0,30.11,SSW,210,0.0,0.0,91,0.00,,---,0.00,VWS V14.01,2013-04-02 07:43:00,
2013-04-02 00:48:00,52.5,50.0,30.12,SSW,210,0.0,0.0,91,0.00,,---,0.00,VWS V14.01,2013-04-02 07:48:00,
2013-04-02 00:53:00,52.3,49.8,30.12,SSW,210,0.0,0.0,91,0.00,,---,0.00,VWS V14.01,2013-04-02 07:53:00,
2013-04-02 00:58:00,52.0,49.5,30.12,SSW,210,0.0,0.0,91,0.00,,---,0.00,VWS V14.01,2013-04-02 07:58:00,
2013-04-02 01:03:00,51.9,49.7,30.13,SSW,210,0.0,0.0,92,0.00,,---,0.00,VWS V14.01,2013-04-02 08:03:00,
2013-04-02 01:09:00,51.7,49.2,30.13,SSW,210,0.0,0.0,91,0.00,,---,0.00,VWS V14.01,2013-04-02 08:09:00,
2013-04-02 01:14:00,51.4,49.2,30.13,SSW,210,0.0,0.0,92,0.00,,---,0.00,VWS V14.01,2013-04-02 08:14:00,
2013-04-02 01:19:00,51.3,49.1,30.13,SSW,210,0.0,0.0,92,0.00,,---,0.00,VWS V14.01,2013-04-02 08:19:00,
2013-04-02 01:24:00,51.1,48.9,30.13,SSW,210,0.0,0.0,92,0.00,,---,0.00,VWS V14.01,2013-04-02 08:24:00,
2013-04-02 01:29:00,51.1,49.2,30.13,SSW,210,0.0,0.0,93,0.00,,---,0.00,VWS V14.01,2013-04-02 08:29:00,
2013-04-02 01:34:00,51.1,49.2,30.13,SSW,210,0.0,0.0,93,0.00,,---,0.00,VWS V14.01,2013-04-02 08:34:00,
2013-04-02 01:39:00,51.0,49.0,30.13,SSW,210,0.0,0.0,93,0.00,,---,0.00,VWS V14.01,2013-04-02 08:39:00,
2013-04-02 01:44:00,50.8,48.8,30.13,SSW,210,0.0,0.0,93,0.00,,---,0.00,VWS V14.01,2013-04-02 08:44:00,
2013-04-02 01:49:00,51.0,49.3,30.13,SSW,210,0.0,0.0,94,0.00,,---,0.00,VWS V14.01,2013-04-02 08:49:00,
2013-04-02 01:54:00,51.3,49.6,30.13,SSW,210,0.0,0.0,94,0.00,,---,0.00,VWS V14.01,2013-04-02 08:54:00,
2013-04-02 01:59:00,51.6,49.9,30.13,SSW,210,0.0,0.0,94,0.00,,---,0.00,VWS V14.01,2013-04-02 08:59:00,
2013-04-02 02:04:00,51.7,50.3,30.13,SSW,210,0.0,0.0,95,0.00,,---,0.00,VWS V14.01,2013-04-02 09:04:00,
2013-04-02 02:09:00,51.9,50.2,30.13,SSW,210,0.0,0.0,94,0.00,,---,0.00,VWS V14.01,2013-04-02 09:09:00,
2013-04-02 02:14:00,52.0,50.6,30.13,SSW,210,0.0,0.0,95,0.00,,---,0.00,VWS V14.01,2013-04-02 09:14:00,
2013-04-02 02:19:00,52.0,50.6,30.13,SSW,210,0.0,0.0,95,0.00,,---,0.00,VWS V14.01,2013-04-02 09:19:00,
2013-04-02 02:24:00,52.2,50.8,30.13,SSW,210,0.0,0.0,95,0.00,,---,0.00,VWS V14.01,2013-04-02 09:24:00,
2013-04-02 02:29:00,52.2,50.8,30.13,SSW,210,0.0,0.0,95,0.00,,---,0.00,VWS V14.01,2013-04-02 09:29:00,
2013-04-02 02:34:00,52.2,50.8,30.13,SSW,210,0.0,0.0,95,0.00,,---,0.00,VWS V14.01,2013-04-02 09:34:00,
2013-04-02 02:39:00,52.0,50.6,30.13,SSW,210,0.0,0.0,95,0.00,,---,0.00,VWS V14.01,2013-04-02 09:39:00,
2013-04-02 02:44:00,52.0,50.6,30.13,SSW,210,0.0,0.0,95,0.00,,---,0.00,VWS V14.01,2013-04-02 09:44:00,
2013-04-02 02:49:00,51.9,50.5,30.13,SSW,210,0.0,0.0,95,0.00,,---,0.00,VWS V14.01,2013-04-02 09:49:00,
2013-04-02 02:54:00,51.7,50.3,30.13,SSW,210,0.0,0.0,95,0.00,,---,0.00,VWS V14.01,2013-04-02 09:54:00,
2013-04-02 02:59:00,51.4,49.7,30.13,SSW,210,0.0,0.0,94,0.00,,---,0.00,VWS V14.01,2013-04-02 09:59:00,
2013-04-02 03:04:00,51.1,49.4,30.12,SSW,210,0.0,0.0,94,0.00,,---,0.00,VWS V14.01,2013-04-02 10:04:00,
2013-04-02 03:10:00,50.7,49.0,30.12,SSW,210,0.0,0.0,94,0.00,,---,0.00,VWS V14.01,2013-04-02 10:10:00,
2013-04-02 03:15:00,50.4,48.7,30.12,SSW,210,0.0,0.0,94,0.00,,---,0.00,VWS V14.01,2013-04-02 10:15:00,
2013-04-02 03:20:00,50.1,48.7,30.12,SSW,210,0.0,0.0,95,0.00,,---,0.00,VWS V14.01,2013-04-02 10:20:00,
2013-04-02 03:25:00,49.9,48.5,30.12,SSW,210,0.0,0.0,95,0.00,,---,0.00,VWS V14.01,2013-04-02 10:25:00,
2013-04-02 03:30:00,49.8,48.4,30.12,SSW,210,0.0,0.0,95,0.00,,---,0.00,VWS V14.01,2013-04-02 10:30:00,
2013-04-02 03:35:00,49.5,48.1,30.12,SSW,210,0.0,0.0,95,0.00,,---,0.00,VWS V14.01,2013-04-02 10:35:00,
2013-04-02 03:40:00,49.4,48.0,30.12,SSW,210,0.0,0.0,95,0.00,,---,0.00,VWS V14.01,2013-04-02 10:40:00,
2013-04-02 03:45:00,49.2,47.8,30.12,SSW,210,0.0,0.0,95,0.00,,---,0.00,VWS V14.01,2013-04-02 10:45:00,
2013-04-02 03:50:00,49.2,47.8,30.13,SSW,210,0.0,0.0,95,0.00,,---,0.00,VWS V14.01,2013-04-02 10:50:00,
2013-04-02 03:55:00,49.1,47.7,30.13,SSW,210,0.0,0.0,95,0.00,,---,0.00,VWS V14.01,2013-04-02 10:55:00,
2013-04-02 04:00:00,49.1,47.7,30.13,SSW,210,0.0,0.0,95,0.00,,---,0.00,VWS V14.01,2013-04-02 11:00:00,
2013-04-02 04:05:00,48.9,47.5,30.12,SSW,210,0.0,0.0,95,0.00,,---,0.00,VWS V14.01,2013-04-02 11:05:00,
2013-04-02 04:10:00,48.9,47.5,30.12,SSW,210,0.0,0.0,95,0.00,,---,0.00,VWS V14.01,2013-04-02 11:10:00,
2013-04-02 04:15:00,48.9,47.5,30.12,SSW,210,0.0,0.0,95,0.00,,---,0.00,VWS V14.01,2013-04-02 11:15:00,
2013-04-02 04:20:00,48.8,47.4,30.11,SSW,210,0.0,0.0,95,0.00,,---,0.00,VWS V14.01,2013-04-02 11:20:00,
2013-04-02 04:25:00,48.6,47.2,30.11,SSW,210,0.0,0.0,95,0.00,,---,0.00,VWS V14.01,2013-04-02 11:25:00,
2013-04-02 04:30:00,48.5,47.1,30.11,SSW,210,0.0,0.0,95,0.00,,---,0.00,VWS V14.01,2013-04-02 11:30:00,
2013-04-02 04:35:00,48.2,46.8,30.11,SSW,210,0.0,0.0,95,0.00,,---,0.00,VWS V14.01,2013-04-02 11:35:00,
2013-04-02 04:40:00,47.9,46.5,30.11,SSW,210,0.0,0.0,95,0.00,,---,0.00,VWS V14.01,2013-04-02 11:40:00,
2013-04-02 04:45:00,47.9,46.8,30.11,SSW,210,0.0,0.0,96,0.00,,---,0.00,VWS V14.01,2013-04-02 11:45:00,
2013-04-02 04:50:00,48.0,46.9,30.12,SSW,210,0.0,0.0,96,0.00,,---,0.00,VWS V14.01,2013-04-02 11:50:00,
2013-04-02 04:55:00,48.2,47.1,30.12,SSW,210,0.0,0.0,96,0.00,,---,0.00,VWS V14.01,2013-04-02 11:55:00,
2013-04-02 05:01:00,48.2,47.1,30.12,SSW,210,0.0,0.0,96,0.00,,---,0.00,VWS V14.01,2013-04-02 12:01:00,
2013-04-02 05:06:00,48.0,46.9,30.11,SSW,210,0.0,0.0,96,0.00,,---,0.00,VWS V14.01,2013-04-02 12:06:00,
2013-04-02 05:11:00,47.9,46.8,30.11,SSW,210,0.0,0.0,96,0.00,,---,0.00,VWS V14.01,2013-04-02 12:11:00,
2013-04-02 05:16:00,47.9,46.8,30.11,SSW,210,0.0,0.0,96,0.00,,---,0.00,VWS V14.01,2013-04-02 12:16:00,
2013-04-02 05:21:00,47.9,46.8,30.12,SSW,210,0.0,0.0,96,0.00,,---,0.00,VWS V14.01,2013-04-02 12:21:00,
2013-04-02 05:26:00,47.6,46.5,30.12,SSW,210,0.0,0.0,96,0.00,,---,0.00,VWS V14.01,2013-04-02 12:26:00,
2013-04-02 05:31:00,47.3,46.2,30.12,SSW,210,0.0,0.0,96,0.00,,---,0.00,VWS V14.01,2013-04-02 12:31:00,
2013-04-02 05:36:00,47.0,45.9,30.12,SSW,210,0.0,0.0,96,0.00,,---,0.00,VWS V14.01,2013-04-02 12:36:00,
2013-04-02 05:41:00,47.4,46.3,30.12,SSW,210,0.0,0.0,96,0.00,,---,0.00,VWS V14.01,2013-04-02 12:41:00,
2013-04-02 05:47:00,47.6,46.5,30.12,SSW,210,0.0,0.0,96,0.00,,---,0.00,VWS V14.01,2013-04-02 12:47:00,
2013-04-02 05:52:00,47.6,46.5,30.11,SSW,210,0.0,0.0,96,0.00,,---,0.00,VWS V14.01,2013-04-02 12:52:00,
2013-04-02 05:57:00,47.6,46.5,30.11,SSW,210,0.0,0.0,96,0.00,,---,0.00,VWS V14.01,2013-04-02 12:57:00,
2013-04-02 06:02:00,47.4,46.3,30.11,SSW,210,0.0,0.0,96,0.00,,---,0.00,VWS V14.01,2013-04-02 13:02:00,
2013-04-02 06:07:00,47.1,46.0,30.11,SSW,210,0.0,0.0,96,0.00,,---,0.00,VWS V14.01,2013-04-02 13:07:00,
2013-04-02 06:12:00,47.0,45.9,30.11,SSW,210,0.0,0.0,96,0.00,,---,0.00,VWS V14.01,2013-04-02 13:12:00,
2013-04-02 06:17:00,46.8,45.7,30.11,SSW,210,0.0,0.0,96,0.00,,---,0.00,VWS V14.01,2013-04-02 13:17:00,
2013-04-02 06:22:00,47.0,45.9,30.11,SSW,210,0.0,0.0,96,0.00,,---,0.00,VWS V14.01,2013-04-02 13:22:00,
2013-04-02 06:27:00,47.4,46.6,30.11,East,89,0.0,0.0,97,0.00,,---,0.00,VWS V14.01,2013-04-02 13:27:00,
2013-04-02 06:32:00,47.6,46.8,30.11,East,89,0.0,0.0,97,0.00,,---,0.00,VWS V14.01,2013-04-02 13:32:00,
2013-04-02 06:37:00,47.7,46.6,30.11,East,89,0.0,0.0,96,0.00,,---,0.00,VWS V14.01,2013-04-02 13:37:00,
2013-04-02 06:42:00,47.7,46.6,30.11,East,89,0.0,0.0,96,0.00,,---,0.00,VWS V14.01,2013-04-02 13:42:00,
2013-04-02 06:47:00,47.7,46.9,30.12,East,89,0.0,0.0,97,0.00,,---,0.00,VWS V14.01,2013-04-02 13:47:00,
2013-04-02 06:52:00,47.7,46.6,30.12,East,89,0.0,0.0,96,0.00,,---,0.00,VWS V14.01,2013-04-02 13:52:00,
2013-04-02 06:57:00,47.7,46.6,30.12,East,89,0.0,0.0,96,0.00,,---,0.00,VWS V14.01,2013-04-02 13:57:00,
2013-04-02 07:02:00,47.6,46.5,30.12,East,89,0.0,0.0,96,0.00,,---,0.00,VWS V14.01,2013-04-02 14:02:00,
2013-04-02 07:07:00,47.6,46.8,30.12,East,89,0.0,0.0,97,0.00,,---,0.00,VWS V14.01,2013-04-02 14:07:00,
2013-04-02 07:12:00,47.6,46.8,30.12,East,89,0.0,0.0,97,0.00,,---,0.00,VWS V14.01,2013-04-02 14:12:00,
2013-04-02 07:17:00,47.6,46.8,30.12,East,89,0.0,0.0,97,0.00,,---,0.00,VWS V14.01,2013-04-02 14:17:00,
2013-04-02 07:22:00,47.9,47.1,30.12,ENE,65,0.0,3.0,97,0.00,,---,0.00,VWS V14.01,2013-04-02 14:22:00,
2013-04-02 07:27:00,48.2,47.4,30.12,ENE,65,0.0,3.0,97,0.00,,---,0.00,VWS V14.01,2013-04-02 14:27:00,
2013-04-02 07:32:00,48.5,47.7,30.12,ENE,65,0.0,3.0,97,0.00,,---,0.00,VWS V14.01,2013-04-02 14:32:00,
2013-04-02 07:37:00,49.5,49.0,30.12,ENE,69,2.0,5.0,98,0.00,,---,0.00,VWS V14.01,2013-04-02 14:37:00,
2013-04-02 07:42:00,50.4,49.6,30.12,ENE,67,0.0,5.0,97,0.00,,---,0.00,VWS V14.01,2013-04-02 14:42:00,
2013-04-02 07:48:00,50.7,49.9,30.13,East,90,4.0,5.0,97,0.00,,---,0.00,VWS V14.01,2013-04-02 14:48:00,
2013-04-02 07:53:00,51.1,50.3,30.13,East,82,2.0,5.0,97,0.00,,---,0.00,VWS V14.01,2013-04-02 14:53:00,
2013-04-02 07:58:00,51.4,50.6,30.13,ENE,65,2.0,7.0,97,0.00,,---,0.00,VWS V14.01,2013-04-02 14:58:00,
2013-04-02 08:03:00,51.7,50.6,30.13,NE,55,2.0,7.0,96,0.00,,---,0.00,VWS V14.01,2013-04-02 15:03:00,
2013-04-02 08:08:00,51.9,50.8,30.13,NE,41,0.0,4.0,96,0.00,,---,0.00,VWS V14.01,2013-04-02 15:08:00,
2013-04-02 08:13:00,52.2,51.1,30.13,East,91,0.0,5.0,96,0.00,,---,0.00,VWS V14.01,2013-04-02 15:13:00,
2013-04-02 08:18:00,52.6,51.2,30.14,NE,55,0.0,5.0,95,0.00,,---,0.00,VWS V14.01,2013-04-02 15:18:00,
2013-04-02 08:23:00,52.9,51.2,30.14,NE,55,0.0,5.0,94,0.00,,---,0.00,VWS V14.01,2013-04-02 15:23:00,
2013-04-02 08:28:00,53.2,51.2,30.14,North,9,0.0,5.0,93,0.00,,---,0.00,VWS V14.01,2013-04-02 15:28:00,
2013-04-02 08:33:00,53.3,51.3,30.14,North,9,0.0,0.0,93,0.00,,---,0.00,VWS V14.01,2013-04-02 15:33:00,
2013-04-02 08:38:00,53.8,51.5,30.14,North,9,3.0,5.0,92,0.00,,---,0.00,VWS V14.01,2013-04-02 15:38:00,
2013-04-02 08:43:00,54.2,51.6,30.14,NE,56,4.0,5.0,91,0.00,,---,0.00,VWS V14.01,2013-04-02 15:43:00,
2013-04-02 08:49:00,54.4,50.9,30.13,NE,51,4.0,7.0,88,0.00,,---,0.00,VWS V14.01,2013-04-02 15:49:00,
2013-04-02 08:54:00,54.7,50.6,30.13,ENE,71,5.0,8.0,86,0.00,,---,0.00,VWS V14.01,2013-04-02 15:54:00,
2013-04-02 08:59:00,54.8,50.4,30.13,ENE,70,4.0,8.0,85,0.00,,---,0.00,VWS V14.01,2013-04-02 15:59:00,
2013-04-02 09:04:00,55.3,50.6,30.13,ENE,75,3.0,3.0,84,0.00,,---,0.00,VWS V14.01,2013-04-02 16:04:00,
2013-04-02 09:09:00,55.4,50.3,30.13,NE,47,5.0,8.0,83,0.00,,---,0.00,VWS V14.01,2013-04-02 16:09:00,
2013-04-02 09:14:00,55.7,50.3,30.13,ENE,67,4.0,8.0,82,0.00,,---,0.00,VWS V14.01,2013-04-02 16:14:00,
2013-04-02 09:19:00,55.9,50.2,30.13,ENE,63,6.0,8.0,81,0.00,,---,0.00,VWS V14.01,2013-04-02 16:19:00,
2013-04-02 09:24:00,55.7,50.0,30.13,ENE,67,4.0,8.0,81,0.00,,---,0.00,VWS V14.01,2013-04-02 16:24:00,
2013-04-02 09:29:00,55.6,50.2,30.13,ENE,76,0.0,8.0,82,0.00,,---,0.00,VWS V14.01,2013-04-02 16:29:00,
2013-04-02 09:34:00,55.7,50.0,30.13,NE,52,6.0,7.0,81,0.00,,---,0.00,VWS V14.01,2013-04-02 16:34:00,
2013-04-02 09:39:00,55.7,50.0,30.13,ENE,59,0.0,7.0,81,0.00,,---,0.00,VWS V14.01,2013-04-02 16:39:00,
2013-04-02 09:44:00,56.3,50.2,30.13,East,101,2.0,7.0,80,0.00,,---,0.00,VWS V14.01,2013-04-02 16:44:00,
2013-04-02 09:49:00,56.6,50.5,30.13,East,101,0.0,7.0,80,0.00,,---,0.00,VWS V14.01,2013-04-02 16:49:00,
2013-04-02 09:54:00,56.9,50.5,30.13,East,90,0.0,7.0,79,0.00,,---,0.00,VWS V14.01,2013-04-02 16:54:00,
2013-04-02 09:59:00,57.3,50.8,30.13,East,85,0.0,7.0,79,0.00,,---,0.00,VWS V14.01,2013-04-02 16:59:00,
2013-04-02 10:04:00,57.6,50.8,30.13,ESE,115,0.0,6.0,78,0.00,,---,0.00,VWS V14.01,2013-04-02 17:04:00,
2013-04-02 10:10:00,58.3,51.1,30.13,ESE,121,6.0,7.0,77,0.00,,---,0.00,VWS V14.01,2013-04-02 17:10:00,
2013-04-02 10:15:00,58.4,51.2,30.13,SE,133,0.0,7.0,77,0.00,,---,0.00,VWS V14.01,2013-04-02 17:15:00,
2013-04-02 10:20:00,58.6,51.1,30.13,East,88,0.0,7.0,76,0.00,,---,0.00,VWS V14.01,2013-04-02 17:20:00,
2013-04-02 10:25:00,58.9,51.0,30.13,ENE,59,0.0,7.0,75,0.00,,---,0.00,VWS V14.01,2013-04-02 17:25:00,
2013-04-02 10:30:00,58.9,51.0,30.13,East,80,3.0,7.0,75,0.00,,---,0.00,VWS V14.01,2013-04-02 17:30:00,
2013-04-02 10:35:00,59.2,51.3,30.13,ESE,102,0.0,6.0,75,0.00,,---,0.00,VWS V14.01,2013-04-02 17:35:00,
2013-04-02 10:40:00,59.5,51.6,30.13,East,80,0.0,6.0,75,0.00,,---,0.00,VWS V14.01,2013-04-02 17:40:00,
2013-04-02 10:45:00,59.8,51.5,30.13,East,84,4.0,6.0,74,0.00,,---,0.00,VWS V14.01,2013-04-02 17:45:00,
2013-04-02 10:50:00,60.1,51.8,30.13,ENE,64,4.0,6.0,74,0.00,,---,0.00,VWS V14.01,2013-04-02 17:50:00,
2013-04-02 10:55:00,60.5,52.0,30.13,East,82,0.0,-999.0,73,-99.99,,,0.00,weatherlink.com 1.10,2013-04-02 17:55:00,
2013-04-02 11:00:00,61.2,52.1,30.13,East,82,0.0,6.0,72,0.00,,---,0.00,VWS V14.01,2013-04-02 18:00:00,
2013-04-02 11:05:00,61.8,52.3,30.13,ENE,69,0.0,4.0,71,0.00,,---,0.00,VWS V14.01,2013-04-02 18:05:00,
2013-04-02 11:10:00,62.3,52.4,30.13,ENE,63,0.0,7.0,70,0.00,,---,0.00,VWS V14.01,2013-04-02 18:10:00,
2013-04-02 11:15:00,63.1,52.8,30.13,ENE,63,0.0,7.0,69,0.00,,---,0.00,VWS V14.01,2013-04-02 18:15:00,
2013-04-02 11:20:00,63.5,52.4,30.13,ENE,76,0.0,7.0,67,0.00,,---,0.00,VWS V14.01,2013-04-02 18:20:00,
2013-04-02 11:25:00,63.9,52.7,30.13,ENE,76,0.0,7.0,67,0.00,,---,0.00,VWS V14.01,2013-04-02 18:25:00,
2013-04-02 11:30:00,64.3,53.1,30.13,NNE,13,0.0,7.0,67,0.00,,---,0.00,VWS V14.01,2013-04-02 18:30:00,
2013-04-02 11:35:00,64.7,53.5,30.13,NNW,344,0.0,5.0,67,0.00,,---,0.00,VWS V14.01,2013-04-02 18:35:00,
2013-04-02 11:40:00,65.0,53.8,30.13,NNW,344,0.0,5.0,67,0.00,,---,0.00,VWS V14.01,2013-04-02 18:40:00,
2013-04-02 11:45:00,65.5,53.4,30.13,NNW,344,0.0,5.0,65,0.00,,---,0.00,VWS V14.01,2013-04-02 18:45:00,
2013-04-02 11:50:00,65.5,53.4,30.12,NNW,344,0.0,5.0,65,0.00,,---,0.00,VWS V14.01,2013-04-02 18:50:00,
2013-04-02 11:56:00,65.3,53.2,30.12,NNW,344,0.0,5.0,65,0.00,,---,0.00,VWS V14.01,2013-04-02 18:56:00,
2013-04-02 12:01:00,66.0,53.5,30.12,NNW,344,0.0,5.0,64,0.00,,---,0.00,VWS V14.01,2013-04-02 19:01:00,
2013-04-02 12:06:00,66.1,53.6,30.12,NNW,344,0.0,1.0,64,0.00,,---,0.00,VWS V14.01,2013-04-02 19:06:00,
2013-04-02 12:11:00,66.6,54.5,30.12,WSW,246,2.0,5.0,65,0.00,,---,0.00,VWS V14.01,2013-04-02 19:11:00,
2013-04-02 12:17:00,67.4,53.9,30.12,NNW,336,0.0,5.0,62,0.00,,---,0.00,VWS V14.01,2013-04-02 19:17:00,
2013-04-02 12:22:00,67.9,54.0,30.12,North,355,4.0,5.0,61,0.00,,---,0.00,VWS V14.01,2013-04-02 19:22:00,
2013-04-02 12:27:00,67.8,54.3,30.12,West,271,0.0,6.0,62,0.00,,---,0.00,VWS V14.01,2013-04-02 19:27:00,
2013-04-02 12:32:00,67.6,54.6,30.12,WNW,294,0.0,6.0,63,0.00,,---,0.00,VWS V14.01,2013-04-02 19:32:00,
2013-04-02 12:37:00,67.8,54.3,30.11,North,355,4.0,4.0,62,0.00,,---,0.00,VWS V14.01,2013-04-02 19:37:00,
2013-04-02 12:42:00,67.9,54.4,30.11,WNW,282,0.0,4.0,62,0.00,,---,0.00,VWS V14.01,2013-04-02 19:42:00,
2013-04-02 12:47:00,68.6,55.1,30.11,WNW,283,0.0,5.0,62,0.00,,---,0.00,VWS V14.01,2013-04-02 19:47:00,
2013-04-02 12:52:00,68.9,54.5,30.10,NW,313,0.0,5.0,60,0.00,,---,0.00,VWS V14.01,2013-04-02 19:52:00,
2013-04-02 12:57:00,69.1,55.5,30.10,WNW,297,0.0,5.0,62,0.00,,---,0.00,VWS V14.01,2013-04-02 19:57:00,
2013-04-02 13:02:00,69.1,55.5,30.10,NNW,335,0.0,5.0,62,0.00,,---,0.00,VWS V14.01,2013-04-02 20:02:00,
2013-04-02 13:07:00,68.9,55.4,30.10,West,265,2.0,5.0,62,0.00,,---,0.00,VWS V14.01,2013-04-02 20:07:00,
2013-04-02 13:12:00,68.6,55.5,30.10,SW,232,1.0,5.0,63,0.00,,---,0.00,VWS V14.01,2013-04-02 20:12:00,
2013-04-02 13:17:00,68.8,55.7,30.10,West,269,0.0,5.0,63,0.00,,---,0.00,VWS V14.01,2013-04-02 20:17:00,
2013-04-02 13:22:00,68.6,56.0,30.10,WNW,290,2.0,5.0,64,0.00,,---,0.00,VWS V14.01,2013-04-02 20:22:00,
2013-04-02 13:27:00,68.8,55.3,30.10,West,267,0.0,6.0,62,0.00,,---,0.00,VWS V14.01,2013-04-02 20:27:00,
2013-04-02 13:32:00,68.9,55.8,30.10,West,279,0.0,6.0,63,0.00,,---,0.00,VWS V14.01,2013-04-02 20:32:00,
2013-04-02 13:37:00,69.4,55.4,30.10,West,265,3.0,7.0,61,0.00,,---,0.00,VWS V14.01,2013-04-02 20:37:00,
2013-04-02 13:43:00,69.4,55.8,30.10,WNW,286,0.0,7.0,62,0.00,,---,0.00,VWS V14.01,2013-04-02 20:43:00,
2013-04-02 13:48:00,69.4,55.4,30.09,West,268,0.0,7.0,61,0.00,,---,0.00,VWS V14.01,2013-04-02 20:48:00,
2013-04-02 13:53:00,69.4,55.8,30.09,NW,321,0.0,7.0,62,0.00,,---,0.00,VWS V14.01,2013-04-02 20:53:00,
2013-04-02 13:58:00,70.1,55.6,30.09,West,275,0.0,7.0,60,0.00,,---,0.00,VWS V14.01,2013-04-02 20:58:00,
2013-04-02 14:03:00,70.6,55.6,30.08,WNW,283,2.0,4.0,59,0.00,,---,0.00,VWS V14.01,2013-04-02 21:03:00,
2013-04-02 14:08:00,70.6,56.1,30.08,WSW,257,0.0,5.0,60,0.00,,---,0.00,VWS V14.01,2013-04-02 21:08:00,
2013-04-02 14:13:00,70.6,55.6,30.08,West,267,0.0,5.0,59,0.00,,---,0.00,VWS V14.01,2013-04-02 21:13:00,
2013-04-02 14:18:00,70.9,55.9,30.08,WNW,286,0.0,7.0,59,0.00,,---,0.00,VWS V14.01,2013-04-02 21:18:00,
2013-04-02 14:23:00,70.8,55.8,30.08,West,279,0.0,7.0,59,0.00,,---,0.00,VWS V14.01,2013-04-02 21:23:00,
2013-04-02 14:28:00,71.3,55.8,30.08,WNW,289,2.0,8.0,58,0.00,,---,0.00,VWS V14.01,2013-04-02 21:28:00,
2013-04-02 14:33:00,71.3,55.8,30.07,WNW,290,2.0,5.0,58,0.00,,---,0.00,VWS V14.01,2013-04-02 21:33:00,
2013-04-02 14:38:00,70.9,54.9,30.07,SW,235,0.0,7.0,57,0.00,,---,0.00,VWS V14.01,2013-04-02 21:38:00,
2013-04-02 14:43:00,70.4,55.4,30.07,WNW,299,0.0,9.0,59,0.00,,---,0.00,VWS V14.01,2013-04-02 21:43:00,
2013-04-02 14:48:00,69.8,55.8,30.08,SW,215,5.0,10.0,61,0.00,,---,0.00,VWS V14.01,2013-04-02 21:48:00,
2013-04-02 14:53:00,68.3,55.2,30.08,WSW,245,0.0,10.0,63,0.00,,---,0.00,VWS V14.01,2013-04-02 21:53:00,
2013-04-02 14:59:00,68.1,54.6,30.08,SSW,207,5.0,10.0,62,0.00,,---,0.00,VWS V14.01,2013-04-02 21:59:00,
2013-04-02 15:04:00,68.1,54.6,30.08,West,269,5.0,8.0,62,0.00,,---,0.00,VWS V14.01,2013-04-02 22:04:00,
2013-04-02 15:09:00,68.1,54.6,30.08,SW,234,2.0,9.0,62,0.00,,---,0.00,VWS V14.01,2013-04-02 22:09:00,
2013-04-02 15:14:00,67.3,54.3,30.08,SSW,202,0.0,9.0,63,0.00,,---,0.00,VWS V14.01,2013-04-02 22:14:00,
2013-04-02 15:19:00,66.4,54.3,30.08,WSW,244,4.0,9.0,65,0.00,,---,0.00,VWS V14.01,2013-04-02 22:19:00,
2013-04-02 15:24:00,66.6,54.1,30.08,West,272,7.0,10.0,64,0.00,,---,0.00,VWS V14.01,2013-04-02 22:24:00,
2013-04-02 15:29:00,66.6,54.1,30.08,WSW,254,0.0,10.0,64,0.00,,---,0.00,VWS V14.01,2013-04-02 22:29:00,
2013-04-02 15:34:00,66.8,54.2,30.08,WNW,283,0.0,0.0,64,0.00,,---,0.00,VWS V14.01,2013-04-02 22:34:00,
2013-04-02 15:39:00,66.9,53.9,30.08,SSW,205,0.0,7.0,63,0.00,,---,0.00,VWS V14.01,2013-04-02 22:39:00,
2013-04-02 15:44:00,66.6,54.1,30.08,WNW,288,0.0,7.0,64,0.00,,---,0.00,VWS V14.01,2013-04-02 22:44:00,
2013-04-02 15:49:00,67.1,54.1,30.08,SW,217,1.0,7.0,63,0.00,,---,0.00,VWS V14.01,2013-04-02 22:49:00,
2013-04-02 15:54:00,67.4,53.9,30.08,WSW,244,0.0,7.0,62,0.00,,---,0.00,VWS V14.01,2013-04-02 22:54:00,
2013-04-02 15:59:00,68.1,54.2,30.08,WSW,246,0.0,7.0,61,0.00,,---,0.00,VWS V14.01,2013-04-02 22:59:00,
2013-04-02 16:04:00,67.9,54.0,30.07,SSW,198,4.0,6.0,61,0.00,,---,0.00,VWS V14.01,2013-04-02 23:04:00,
2013-04-02 16:09:00,67.4,53.9,30.07,SW,234,0.0,8.0,62,0.00,,---,0.00,VWS V14.01,2013-04-02 23:09:00,
2013-04-02 16:14:00,67.6,54.1,30.07,West,267,1.0,8.0,62,0.00,,---,0.00,VWS V14.01,2013-04-02 23:14:00,
2013-04-02 16:19:00,67.9,54.0,30.07,West,280,3.0,8.0,61,0.00,,---,0.00,VWS V14.01,2013-04-02 23:19:00,
2013-04-02 16:24:00,67.9,54.0,30.07,WNW,289,4.0,8.0,61,0.00,,---,0.00,VWS V14.01,2013-04-02 23:24:00,
2013-04-02 16:29:00,67.6,53.7,30.07,SW,221,0.0,8.0,61,0.00,,---,0.00,VWS V14.01,2013-04-02 23:29:00,
2013-04-02 16:34:00,67.3,53.8,30.06,WSW,246,2.0,8.0,62,0.00,,---,0.00,VWS V14.01,2013-04-02 23:34:00,
2013-04-02 16:39:00,67.4,53.9,30.06,South,175,0.0,8.0,62,0.00,,---,0.00,VWS V14.01,2013-04-02 23:39:00,
2013-04-02 16:44:00,66.9,53.9,30.06,SW,219,6.0,8.0,63,0.00,,---,0.00,VWS V14.01,2013-04-02 23:44:00,
2013-04-02 16:49:00,65.6,53.1,30.06,SSW,212,3.0,9.0,64,0.00,,---,0.00,VWS V14.01,2013-04-02 23:49:00,
2013-04-02 16:54:00,65.2,53.6,30.06,SW,227,0.0,9.0,66,0.00,,---,0.00,VWS V14.01,2013-04-02 23:54:00,
2013-04-02 16:59:00,64.7,53.1,30.06,SSW,204,0.0,9.0,66,0.00,,---,0.00,VWS V14.01,2013-04-02 23:59:00,
2013-04-02 17:05:00,64.3,52.7,30.06,SW,220,3.0,9.0,66,0.00,,---,0.00,VWS V14.01,2013-04-03 00:05:00,
2013-04-02 17:10:00,64.0,53.2,30.06,SSW,194,0.0,9.0,68,0.00,,---,0.00,VWS V14.01,2013-04-03 00:10:00,
2013-04-02 17:15:00,63.7,53.0,30.06,SSW,203,1.0,9.0,68,0.00,,---,0.00,VWS V14.01,2013-04-03 00:15:00,
2013-04-02 17:20:00,63.9,52.7,30.07,SW,215,4.0,9.0,67,0.00,,---,0.00,VWS V14.01,2013-04-03 00:20:00,
2013-04-02 17:25:00,63.2,52.5,30.07,SW,230,3.0,13.0,68,0.00,,---,0.00,VWS V14.01,2013-04-03 00:25:00,
2013-04-02 17:30:00,62.9,52.6,30.07,WSW,238,2.0,13.0,69,0.00,,---,0.00,VWS V14.01,2013-04-03 00:30:00,
2013-04-02 17:35:00,63.1,52.8,30.06,WNW,296,4.0,6.0,69,0.00,,---,0.00,VWS V14.01,2013-04-03 00:35:00,
2013-04-02 17:40:00,62.9,51.8,30.06,WSW,245,0.0,8.0,67,0.00,,---,0.00,VWS V14.01,2013-04-03 00:40:00,
2013-04-02 17:46:00,62.4,52.5,30.06,SSW,208,0.0,8.0,70,0.00,,---,0.00,VWS V14.01,2013-04-03 00:46:00,
2013-04-02 17:52:00,62.3,52.4,30.06,WSW,248,4.0,8.0,70,0.00,,---,0.00,VWS V14.01,2013-04-03 00:52:00,
2013-04-02 17:57:00,62.1,52.6,30.06,SW,227,6.0,8.0,71,0.00,,---,0.00,VWS V14.01,2013-04-03 00:57:00,
2013-04-02 18:02:00,61.6,52.1,30.06,SW,215,0.0,8.0,71,0.00,,---,0.00,VWS V14.01,2013-04-03 01:02:00,
2013-04-02 18:07:00,61.3,52.2,30.06,SSW,210,8.0,8.0,72,0.00,,---,0.00,VWS V14.01,2013-04-03 01:07:00,
2013-04-02 18:12:00,60.7,52.0,30.06,WSW,241,0.0,10.0,73,0.00,,---,0.00,VWS V14.01,2013-04-03 01:12:00,
2013-04-02 18:17:00,60.4,52.1,30.07,SW,226,0.0,10.0,74,0.00,,---,0.00,VWS V14.01,2013-04-03 01:17:00,
2013-04-02 18:22:00,60.2,52.3,30.07,SW,235,0.0,10.0,75,0.00,,---,0.00,VWS V14.01,2013-04-03 01:22:00,
2013-04-02 18:27:00,59.9,52.3,30.07,WSW,248,10.0,10.0,76,0.00,,---,0.00,VWS V14.01,2013-04-03 01:27:00,
2013-04-02 18:32:00,59.5,52.3,30.07,SSW,210,7.0,11.0,77,0.00,,---,0.00,VWS V14.01,2013-04-03 01:32:00,
2013-04-02 18:37:00,59.2,52.3,30.07,SSW,202,3.0,8.0,78,0.00,,---,0.00,VWS V14.01,2013-04-03 01:37:00,
2013-04-02 18:42:00,59.0,52.2,30.07,SW,222,7.0,8.0,78,0.00,,---,0.00,VWS V14.01,2013-04-03 01:42:00,
2013-04-02 18:48:00,58.7,52.2,30.06,SSW,209,1.0,8.0,79,0.00,,---,0.00,VWS V14.01,2013-04-03 01:48:00,
2013-04-02 18:53:00,58.4,51.9,30.06,SSW,211,0.0,8.0,79,0.00,,---,0.00,VWS V14.01,2013-04-03 01:53:00,
2013-04-02 18:58:00,58.1,52.0,30.06,SW,232,0.0,8.0,80,0.00,,---,0.00,VWS V14.01,2013-04-03 01:58:00,
2013-04-02 19:03:00,57.8,52.0,30.06,SW,223,6.0,8.0,81,0.00,,---,0.00,VWS V14.01,2013-04-03 02:03:00,
2013-04-02 19:08:00,57.5,51.7,30.06,SSW,209,0.0,8.0,81,0.00,,---,0.00,VWS V14.01,2013-04-03 02:08:00,
2013-04-02 19:13:00,57.2,51.8,30.06,SSW,194,3.0,11.0,82,0.00,,---,0.00,VWS V14.01,2013-04-03 02:13:00,
2013-04-02 19:18:00,56.7,51.6,30.06,SW,223,4.0,11.0,83,0.00,,---,0.00,VWS V14.01,2013-04-03 02:18:00,
2013-04-02 19:23:00,56.2,51.4,30.06,SW,219,3.0,11.0,84,0.00,,---,0.00,VWS V14.01,2013-04-03 02:23:00,
2013-04-02 19:28:00,55.6,51.2,30.06,SW,225,3.0,11.0,85,0.00,,---,0.00,VWS V14.01,2013-04-03 02:28:00,
2013-04-02 19:33:00,55.1,51.0,30.06,SSW,207,5.0,8.0,86,0.00,,---,0.00,VWS V14.01,2013-04-03 02:33:00,
2013-04-02 19:38:00,54.7,50.9,30.06,SW,215,5.0,8.0,87,0.00,,---,0.00,VWS V14.01,2013-04-03 02:38:00,
2013-04-02 19:43:00,54.4,50.9,30.06,SSW,213,7.0,8.0,88,0.00,,---,0.00,VWS V14.01,2013-04-03 02:43:00,
2013-04-02 19:48:00,54.2,50.7,30.07,SSW,204,7.0,11.0,88,0.00,,---,0.00,VWS V14.01,2013-04-03 02:48:00,
2013-04-02 19:53:00,53.9,50.7,30.07,SW,220,7.0,11.0,89,0.00,,---,0.00,VWS V14.01,2013-04-03 02:53:00,
2013-04-02 19:58:00,53.8,50.6,30.07,South,186,3.0,11.0,89,0.00,,---,0.00,VWS V14.01,2013-04-03 02:58:00,
2013-04-02 20:04:00,53.6,50.7,30.07,SW,221,6.0,7.0,90,0.00,,---,0.00,VWS V14.01,2013-04-03 03:04:00,
2013-04-02 20:09:00,53.5,50.9,30.07,SSW,198,0.0,10.0,91,0.00,,---,0.00,VWS V14.01,2013-04-03 03:09:00,
2013-04-02 20:14:00,53.3,50.7,30.07,South,186,0.0,10.0,91,0.00,,---,0.00,VWS V14.01,2013-04-03 03:14:00,
2013-04-02 20:19:00,53.2,50.7,30.08,SW,221,0.0,10.0,91,0.00,,---,0.00,VWS V14.01,2013-04-03 03:19:00,
2013-04-02 20:24:00,53.2,50.7,30.08,SW,221,0.0,10.0,91,0.00,,---,0.00,VWS V14.01,2013-04-03 03:24:00,
2013-04-02 20:29:00,53.2,50.7,30.08,SW,221,0.0,10.0,91,0.00,,---,0.00,VWS V14.01,2013-04-03 03:29:00,
2013-04-02 20:34:00,53.2,50.9,30.08,WSW,246,0.0,1.0,92,0.00,,---,0.00,VWS V14.01,2013-04-03 03:34:00,
2013-04-02 20:39:00,53.1,50.8,30.08,WSW,246,0.0,3.0,92,0.00,,---,0.00,VWS V14.01,2013-04-03 03:39:00,
2013-04-02 20:45:00,52.9,50.6,30.08,SW,217,0.0,4.0,92,0.00,,---,0.00,VWS V14.01,2013-04-03 03:45:00,
2013-04-02 20:50:00,52.9,50.6,30.09,WSW,242,3.0,4.0,92,0.00,,---,0.00,VWS V14.01,2013-04-03 03:50:00,
2013-04-02 20:55:00,52.6,50.3,30.09,SW,222,5.0,5.0,92,0.00,,---,0.00,VWS V14.01,2013-04-03 03:55:00,
2013-04-02 21:00:00,52.5,50.2,30.09,SSW,212,0.0,6.0,92,0.00,,---,0.00,VWS V14.01,2013-04-03 04:00:00,
2013-04-02 21:01:00,52.5,50.2,30.09,SSW,212,0.0,6.0,92,0.00,,---,0.00,VWS V14.01,2013-04-03 04:01:00,
2013-04-02 21:07:00,52.5,50.5,30.10,West,265,0.0,0.0,93,0.00,,---,0.00,VWS V14.01,2013-04-03 04:07:00,
2013-04-02 21:12:00,52.5,50.5,30.10,West,265,0.0,0.0,93,0.00,,---,0.00,VWS V14.01,2013-04-03 04:12:00,
2013-04-02 21:17:00,52.5,50.5,30.10,West,265,0.0,0.0,93,0.00,,---,0.00,VWS V14.01,2013-04-03 04:17:00,
2013-04-02 21:22:00,52.6,50.6,30.10,West,262,0.0,0.0,93,0.00,,---,0.00,VWS V14.01,2013-04-03 04:22:00,
2013-04-02 21:27:00,52.5,50.5,30.10,WSW,242,0.0,0.0,93,0.00,,---,0.00,VWS V14.01,2013-04-03 04:27:00,
2013-04-02 21:33:00,52.5,50.5,30.11,South,172,0.0,5.0,93,0.00,,---,0.00,VWS V14.01,2013-04-03 04:33:00,
2013-04-02 21:38:00,52.3,50.3,30.11,South,171,0.0,0.0,93,0.00,,---,0.00,VWS V14.01,2013-04-03 04:38:00,
2013-04-02 21:43:00,52.3,50.3,30.11,South,172,0.0,0.0,93,0.00,,---,0.00,VWS V14.01,2013-04-03 04:43:00,
2013-04-02 21:48:00,52.2,50.2,30.11,South,179,0.0,4.0,93,0.00,,---,0.00,VWS V14.01,2013-04-03 04:48:00,
2013-04-02 21:53:00,52.0,50.0,30.11,SSW,209,0.0,5.0,93,0.00,,---,0.00,VWS V14.01,2013-04-03 04:53:00,
2013-04-02 21:58:00,52.0,50.3,30.11,SSW,207,0.0,5.0,94,0.00,,---,0.00,VWS V14.01,2013-04-03 04:58:00,
2013-04-02 22:03:00,52.0,50.3,30.12,SSW,207,0.0,0.0,94,0.00,,---,0.00,VWS V14.01,2013-04-03 05:03:00,
2013-04-02 22:08:00,52.0,50.0,30.12,SSW,207,0.0,0.0,93,0.00,,---,0.00,VWS V14.01,2013-04-03 05:08:00,
2013-04-02 22:13:00,51.9,50.2,30.12,SSW,196,1.0,1.0,94,0.00,,---,0.00,VWS V14.01,2013-04-03 05:13:00,
2013-04-02 22:18:00,51.7,50.0,30.11,SSW,196,0.0,1.0,94,0.00,,---,0.00,VWS V14.01,2013-04-03 05:18:00,
2013-04-02 22:23:00,51.7,50.0,30.11,SSW,197,0.0,1.0,94,0.00,,---,0.00,VWS V14.01,2013-04-03 05:23:00,
2013-04-02 22:28:00,51.7,50.0,30.11,SSW,197,0.0,1.0,94,0.00,,---,0.00,VWS V14.01,2013-04-03 05:28:00,
2013-04-02 22:33:00,51.7,50.0,30.11,SSW,197,0.0,0.0,94,0.00,,---,0.00,VWS V14.01,2013-04-03 05:33:00,
2013-04-02 22:38:00,51.7,50.0,30.11,SSW,197,0.0,0.0,94,0.00,,---,0.00,VWS V14.01,2013-04-03 05:38:00,
2013-04-02 22:43:00,51.7,50.0,30.11,SSW,197,0.0,0.0,94,0.00,,---,0.00,VWS V14.01,2013-04-03 05:43:00,
2013-04-02 22:48:00,51.7,50.0,30.11,SSW,197,0.0,0.0,94,0.00,,---,0.00,VWS V14.01,2013-04-03 05:48:00,
2013-04-02 22:53:00,51.7,50.0,30.11,SSW,196,0.0,0.0,94,0.00,,---,0.00,VWS V14.01,2013-04-03 05:53:00,
2013-04-02 22:58:00,51.7,50.0,30.11,SSW,196,0.0,0.0,94,0.00,,---,0.00,VWS V14.01,2013-04-03 05:58:00,
2013-04-02 23:04:00,51.7,50.0,30.11,WSW,247,0.0,0.0,94,0.00,,---,0.00,VWS V14.01,2013-04-03 06:04:00,
2013-04-02 23:09:00,51.6,49.9,30.11,WSW,247,0.0,0.0,94,0.00,,---,0.00,VWS V14.01,2013-04-03 06:09:00,
2013-04-02 23:14:00,51.6,49.9,30.11,WSW,247,0.0,0.0,94,0.00,,---,0.00,VWS V14.01,2013-04-03 06:14:00,
2013-04-02 23:19:00,51.7,50.0,30.12,WSW,247,0.0,0.0,94,0.00,,---,0.00,VWS V14.01,2013-04-03 06:19:00,
2013-04-02 23:24:00,51.6,49.9,30.12,WSW,247,0.0,0.0,94,0.00,,---,0.00,VWS V14.01,2013-04-03 06:24:00,
2013-04-02 23:29:00,51.4,49.7,30.12,WSW,247,0.0,0.0,94,0.00,,---,0.00,VWS V14.01,2013-04-03 06:29:00,
2013-04-02 23:34:00,51.4,49.7,30.11,WSW,247,0.0,0.0,94,0.00,,---,0.00,VWS V14.01,2013-04-03 06:34:00,
2013-04-02 23:39:00,51.4,49.7,30.11,WSW,247,0.0,0.0,94,0.00,,---,0.00,VWS V14.01,2013-04-03 06:39:00,
2013-04-02 23:44:00,51.4,49.7,30.11,WSW,247,0.0,0.0,94,0.00,,---,0.00,VWS V14.01,2013-04-03 06:44:00,
2013-04-02 23:49:00,51.3,49.6,30.11,WSW,247,0.0,0.0,94,0.00,,---,0.00,VWS V14.01,2013-04-03 06:49:00,
2013-04-02 23:54:00,51.3,49.6,30.11,WSW,247,0.0,0.0,94,0.00,,---,0.00,VWS V14.01,2013-04-03 06:54:00,
2013-04-02 23:59:00,51.3,49.6,30.11,WSW,247,0.0,0.0,94,0.00,,---,0.00,VWS V14.01,2013-04-03 06:59:00,